Regional Weather Roundup
Issued by NWS

Home | Current Version | Previous Version | Text Only | Print | Product List | Glossary Off
Versions: 1 2 3 4 5 6 7 8 9 10 11 12 13 14 15 16 17 18 19 20 21 22 23 24 25 26 27 28 29 30 31 32 33 34 35 36 37 38 39 40 41 42 43 44 45 46 47 48 49 50

039
ASUS43 KIND 260109
RWRIN

WEATHER ROUNDUP FOR INDIANA
NATIONAL WEATHER SERVICE INDIANAPOLIS IN
900 PM EDT SUN JUN 25 2017

NOTE: "FAIR" INDICATES FEW OR NO CLOUDS BELOW 12,000 FEET WITH NO
SIGNIFICANT WEATHER AND/OR OBSTRUCTIONS TO VISIBILITY.

* - STATION DOES NOT REPORT WEATHER SUCH AS PRECIPITATION OR FOG.

+ - STATION NOT QUALITY CONTROLLED BY THE NATIONAL WEATHER SERVICE.
    USE DATA WITH CAUTION...ESPECIALLY DEWPOINT AND RELATIVE
    HUMIDITY OBSERVATIONS.

INZ001>003-010>013-019-020-260200-
NORTHWEST INDIANA

CITY           SKY/WX    TMP DP  RH WIND       PRES   REMARKS
GARY /AIRPORT/ PTCLDY    70  45  40 W21G32    30.10R
KNOX *+        CLOUDY    66  36  32 W8        30.09R
LA PORTE +     CLOUDY    67  47  48 W8G17     30.09S
MICHIGAN CITY+ LGT RAIN  66  48  52 W8        30.08F
MONTICELLO +   PTCLDY    67  46  46 W7        30.10S
VALPARAISO     CLOUDY    68  48  48 W13       30.09S

$$

LMZ046-743>745-260200-
SOUTHERN LAKE MICHIGAN

STATION/POSITION TIME  TEMP    WIND        PRES    WAVE
                       AIR SEA DIR/SP/G            HT
                 (UTC) (F)     (DEG/KT/KT) (MB)    (FT)
BURNS HARBOR     0040   68     270/ 17/ 18 1018.6S
MICHIGAN CITY    0040   67     250/ 15/ 17   N/A
5NW MICH CITY    0100   67 67  290/ 12/ 16   N/A     2

$$

INZ004-005-014>016-021>024-260200-
NORTH CENTRAL INDIANA

CITY           SKY/WX    TMP DP  RH WIND       PRES   REMARKS
GOSHEN         CLOUDY    67  44  43 W7        30.07S
LOGANSPORT +   PTCLDY    66  45  45 W9        30.11S
PERU/GRISSOM   MOCLDY    66  49  54 W9        30.07F
ROCHESTER +    PTCLDY    68  43  40 W7        30.10S
SOUTH BEND     MOCLDY    64  47  53 W6        30.08R
WARSAW +       PTCLDY    64  43  45 W7        30.09R

$$

INZ006>009-017-018-025>027-260200-
NORTHEAST INDIANA

CITY           SKY/WX    TMP DP  RH WIND       PRES   REMARKS
AUBURN +       MOCLDY    64  45  48 CALM      30.08S
FORT WAYNE     MOCLDY    67  46  47 W9        30.09R
HUNTINGTON +   MOCLDY    65  44  47 W5        30.09S
KENDALLVILLE + CLOUDY    65  46  50 W6        30.08S

$$

INZ028-029-035-036-043>045-051>053-260200-
WEST CENTRAL INDIANA

CITY           SKY/WX    TMP DP  RH WIND       PRES   REMARKS
CRAWFORDSVL +  CLEAR     65  50  59 W6        30.12S
GREENCASTLE +  CLEAR     68  43  40 W3        30.13R
LAFAYETTE      CLEAR     66  48  52 NW9       30.11R
TERRE HAUTE    CLEAR     71  45  39 NW9       30.13R

$$

INZ030>032-037>040-046>048-054>057-064-065-260200-
CENTRAL INDIANA

CITY           SKY/WX    TMP DP  RH WIND       PRES   REMARKS
CP ATTERBURY + PTCLDY    68  46  45 W3        30.13R
COLUMBUS       PTCLDY    68  45  42 W5        30.12S
FRANKFORT +    CLEAR     69  50  50 W8        30.13S
GREENWOOD *+   CLEAR     71  42  36 W6        30.12S
INDIANAPOLIS   PTCLDY    69  46  43 W9        30.11S
-EAGLE CREEK   CLEAR     70  47  43 W8        30.11S
KOKOMO +       PTCLDY    66  50  56 W7        30.11S
MARION +       MOCLDY    66  46  48 W6        30.11S
MT COMFORT *+  PTCLDY    70  46  43 W14       30.12S
SHELBYVILLE    CLEAR     71  42  35 W8        30.11R
ZIONSVILLE +   PTCLDY    67  49  52 NW5       30.12S

$$

INZ033-034-041-042-049-050-058-059-260200-
EAST CENTRAL INDIANA

CITY           SKY/WX    TMP DP  RH WIND       PRES   REMARKS
MUNCIE         CLEAR     67  49  52 W6        30.11R

$$

INZ060-061-067>069-081>083-085>088-260200-
SOUTHWEST INDIANA

CITY           SKY/WX    TMP DP  RH WIND       PRES   REMARKS
EVANSVILLE     CLEAR     75  48  38 NW3       30.13S
HUNTINGBURG *+ CLEAR     71  51  49 NW3       30.13S
WASHINGTON +   CLEAR     69  51  53 NW3       30.13R

$$

INZ062-063-066-070>080-084-089>092-260200-
SOUTH CENTRAL AND SOUTHEAST INDIANA

CITY           SKY/WX    TMP DP  RH WIND       PRES   REMARKS
BEDFORD +      MOCLDY    72  43  35 CALM      30.12
BLOOMINGTON    CLEAR     70  45  40 NW5       30.13R
MADISON *+     CLEAR     70  45  40 CALM      30.14R
NORTH VERNON + PTCLDY    70  50  49 W5        30.13R
SEYMOUR +      PTCLDY   N/A N/A N/A W6        30.12R

$$





USA.gov is the U.S. government's official web portal to all federal, state and local government web resources and services.